User: anonymous   Login
Location: *
(17.3280°S, 114.7300°W)
Time: 09:20:12
(UTC+00:00)
Language:

ADEOS Rocket - Orbit

View from above orbital plane
View from above orbital plane
View from above satellite
View from above satellite

Ground track
Ground track

The orbit data is extracted from the following two-line orbital elements,

1 24279U 96046C   20293.72848664 +.00000020 +00000-0 +67125-4 0  9997
2 24279 098.7021 099.2900 0300799 056.1363 326.5105 13.47161990188587
Epoch (UTC): 19 October 2020 17:29:01
Eccentricity: 0.0300799
inclination: 98.7021°
perigee height: 858 km
apogee height: 1307 km
right ascension of ascending node: 99.2900°
argument of perigee: 56.1363°
revolutions per day: 13.47161990
mean anomaly at epoch: 326.5105°
orbit number at epoch: 18858

The dashed part of the orbit path shows where the satellite is in the earth's shadow,  

DLR